{"data":{"norad_id":56348,"intl_designator":"2023-058AH","name":"STARLINK-5888","alt_names":[],"object_type":"PAYLOAD","status":"ACTIVE","operator":null,"country":"US","launch_date":"2023-04-27","launch_site_code":"AFWTR","launch_vehicle":null,"mission":null,"orbit_class":"UNKNOWN","rcs_meters":null,"size_class":null,"mass_kg":null,"dimensions":null,"purposes":["comms"],"wikipedia_slug":null,"has_3d_model":false,"image_url":null,"decayed_at":null,"tle_current":{"epoch":"2026-09-20T22:00:03.000096Z","epoch_age_seconds":72559,"freshness":"FRESH","line1":"1 56348U 23058AH  26263.91670139  .00804354  00000+0  30410-1 0  9991","line2":"2 56348  97.2853 257.7905 0001585  85.9938  33.8807 15.24329614  5740","mean_motion":15.24329614,"eccentricity":0.0001585,"inclination_deg":97.2853,"raan_deg":257.7905,"arg_perigee_deg":85.9938,"mean_anomaly_deg":33.8807,"bstar":0.03041,"rev_number":574,"period_min":94.467757286516,"perigee_km":491.71016828705,"apogee_km":493.88825506615,"semimajor_km":6870.9362116766,"source":"CELESTRAK","updated_at":"2026-09-21T09:00:33.406834Z"}}}